Regional Weather Roundup
Issued by NWS Upton, NY

Current Version | Previous Version | Graphics & Text | Print | Product List | Glossary On
Versions: 1 2 3 4 5 6 7 8 9 10 11 12 13 14 15 16 17 18 19 20 21 22 23 24 25 26 27 28 29 30 31 32 33 34 35 36 37 38 39 40 41 42 43 44 45 46 47 48 49 50
000
ASUS41 KOKX 291818
RWROKX

REGIONAL WEATHER ROUNDUP
NATIONAL WEATHER SERVICE NEW YORK NY
200 PM EDT FRI MAY 29 2015

NOTE: "FAIR" INDICATES FEW OR NO CLOUDS BELOW 12,000 FEET WITH NO
SIGNIFICANT WEATHER AND/OR OBSTRUCTIONS TO VISIBILITY.

NYZ071-072-176-178-NJZ106-104-291900-
NEW YORK CITY METRO AREA


CITY           SKY/WX    TMP DP  RH WIND       PRES   REMARKS
CENTRAL PARK   SUNNY     84  55  36 CALM      30.28F
LAGUARDIA APRT MOSUNNY   81  54  39 NE8       30.25F
KENNEDY INTL   MOSUNNY   79  54  41 S12       30.28F
NEWARK/LIBERTY MOSUNNY   79  55  43 S8        30.26S
BRNX BOT. GARD   N/A     81  55  41 S6        30.28R
TETERBORO      SUNNY     82  51  34 VRB5      30.24F
$$

NYZ177-179-078>081-291900-
LONG ISLAND NEW YORK

CITY           SKY/WX    TMP DP  RH WIND       PRES   REMARKS
FARMINGDALE    SUNNY     78  58  49 SE10      30.27F
ISLIP          MOSUNNY   78  56  46 SE10      30.26S
SHIRLEY        SUNNY     78  56  46 S13       30.28S
WESTHAMPTON    SUNNY     74  55  51 SE13      30.29S
MONTAUK POINT    N/A     75  58  55 S6        30.29F
$$

NYZ052-065-067-291900-
HUDSON VALLEY

CITY           SKY/WX    TMP DP  RH WIND       PRES   REMARKS
WHITE PLAINS   SUNNY     76  55  48 CALM      30.27F
NEWBURGH       SUNNY     79  57  47 CALM      30.28F
MONTGOMERY     SUNNY     79  58  48 SW7       30.26F
POUGHKEEPSIE   SUNNY     79  55  43 W6        30.25F
ALBANY         PTSUNNY   81  53  37 S5        30.25F
$$

NJZ001-105-106-008-010-013-015-019>022-104-291900-
NEW JERSEY

CITY           SKY/WX    TMP DP  RH WIND       PRES   REMARKS
NEWARK/LIBERTY MOSUNNY   79  55  43 S8        30.26S
TETERBORO      SUNNY     82  51  34 VRB5      30.24F
CALDWELL       SUNNY     83  53  35 CALM      30.26F
MORRISTOWN     MOSUNNY   82  57  42 W5        30.26F
SOMERVILLE     SUNNY     83  55  38 SE5       30.24F
SUSSEX         SUNNY     81  56  42 W5        30.27F
ANDOVER          N/A     81  54  39 SW6       30.27F
TRENTON        SUNNY     83  57  41 CALM      30.25F
MILLVILLE      SUNNY     84  63  49 SE6       30.25F
ATLANTIC CITY  SUNNY     79  58  48 SE14      30.27S
WRIGHTSTOWN    SUNNY     84  57  39 VRB2      30.22F
TOMS RIVER     SUNNY    N/A N/A N/A E8        30.28S
BELMAR         SUNNY     75  54  46 E8        30.28S
$$

PAZ047>061-062-071-291900-
EASTERN PENNSYLVANIA

CITY           SKY/WX    TMP DP  RH WIND       PRES   REMARKS
PHILADELPHIA   MOSUNNY   83  59  44 NE5       30.25F
ALLENTOWN      SUNNY     86  54  33 CALM      30.26F
SCRANTON       SUNNY     82  52  35 VRB3      30.26F
$$

CTZ002-004>006-009-010-012-RIZ004-006-007-MAZ004-011-015-291900-
SOUTHERN NEW ENGLAND
 IN CT

CITY           SKY/WX    TMP DP  RH WIND       PRES   REMARKS
BRADLEY INTL   PTSUNNY   82  59  45 VRB5      30.25F
HARTFORD       SUNNY     80  56  43 SE10      30.25F
DANBURY        SUNNY     78  57  48 W9        30.27F
WTRBRY/OXFORD  MOSUNNY   79  57  47 VRB6      30.30S
BRIDGEPORT     SUNNY     75  55  49 S7        30.27F
MERIDEN        SUNNY     84  54  35 VRB7      30.25F
NEW HAVEN      SUNNY     76  57  51 S10       30.27F
CHESTER        FAIR      77  57  50 S8        30.28S
GROTON         MOSUNNY   72  57  59 S7        30.27F
WILLIMANTIC    MOSUNNY   81  56  42 SW5       30.25F

 IN RI

CITY           SKY/WX    TMP DP  RH WIND       PRES   REMARKS
PROVIDENCE     MOSUNNY   81  57  43 S9        30.26F
BLOCK ISLAND   SUNNY     72  55  56 SE9       30.29F
WESTERLY       SUNNY     72  57  59 SE9       30.29S

 IN MA

CITY           SKY/WX    TMP DP  RH WIND       PRES   REMARKS
BOSTON         MOSUNNY   66  59  78 E14       30.31S
WORCESTER      PTSUNNY   77  56  48 E8        30.29F
WESTFIELD      MOSUNNY   81  57  43 W5        30.25F
PROVINCETOWN   PTSUNNY   64  55  72 NE10      30.30F
NANTUCKET      SUNNY     73  57  57 SE12      30.29R
$$

ANZ330-335-338-340-345-350-353-355-291900-
COASTAL MARINE OBSERVATIONS


STATION/POSITION TIME  SKY/WX   TEMP    WIND        PRES    VSBY  WAVE
                                AIR SEA DIR/SP/G                  HT/PER
                 (UTC)          (F)     (DEG/KT/KT) (MB)    (MI)  (FT/S)
NY HARB ENTRANCE 1750            65 63  140/  6/  6 1025.0          2/ 8
4S FIRE IS       1703               61                N/A           2/ 7
20S FIRE ISLAND  1750            62 60   90/  6/  8 1025.3          2/ 8
GREAT SOUTH BAY  1700            68 70  140/ 10/ 12   N/A
23SW MTP         1750            59 57  100/  4/  6 1025.4          2/ 7
HUDSON CANYON    NOT AVBL
KINGS POINT      1700            73 55   20/  6/  8 1024.7
CENTRAL LI SOUND 1700            67 62  190/  4/  6   N/A
EASTERN LI SOUND 1700            61     190/  4/  6   N/A
ROBBINS REEF     1700            69     170/ 15/ 15 1024.0
$$


>>>>>>>>>>>>>>>>>>>>>>>>>>>> KEY <<<<<<<<<<<<<<<<<<<<<<<<<<<
>                                                          <
>     SKY/WX - SKY CONDITION/PRESENT WEATHER               <
>     TMP    - TEMPERATURE IN FAHRENHEIT                   <
>     DP     - DEWPOINT IN FAHRENHEIT                      <
>     RH     - RELATIVE HUMIDITY IN PERCENT                <
>     WIND   - DIRECTION AND SPEED IN MPH                  <
>     PRES   - MEAN SEA LEVEL PRESSURE IN INCHES OF HG     <
>     WCI    - WIND CHILL INDEX                            <
>     VSB    - VISIBILITY IN MILES                         <
>     HX     - HEAT INDEX                                  <
>     TC     - TEMPERATURE IN CELSIUS                      <
>     VRB    - VARIABLE WIND DIRECTION                     <
>                                                          <
>>>>>>>>>>>>>>>>>>>>>>>>>>>> KEY <<<<<<<<<<<<<<<<<<<<<<<<<<<




USA.gov is the U.S. government's official web portal to all federal, state and local government web resources and services.